Stündliche Wetter Labno

Heute, 18 Mai, Dienstag

Zeit Temperatur Niederschläge Wind Luftdruck Luftfeuchtigkeit
00:00 +12°C° 0 mm 1 m/S 745 mmHg 84%
01:00 +11°C° 0 mm 1 m/S 744 mmHg 87%
02:00 +11°C° 0 mm 1 m/S 744 mmHg 87%
03:00 +11°C° 0 mm 1 m/S 744 mmHg 87%
04:00 +11°C° 0 mm 1 m/S 744 mmHg 88%
05:00 +12°C° 0 mm 1 m/S 744 mmHg 86%
06:00 +13°C° 0 mm 1 m/S 745 mmHg 83%
07:00 +14°C° 0 mm 1 m/S 745 mmHg 81%
08:00 +15°C° 0.1 mm 2 m/S 745 mmHg 78%
09:00 +16°C° 0.1 mm 2 m/S 745 mmHg 74%
10:00 +18°C° 0.1 mm 3 m/S 745 mmHg 70%
11:00 +18°C° 0.4 mm 3 m/S 745 mmHg 70%
12:00 +18°C° 0.4 mm 3 m/S 745 mmHg 70%
13:00 +18°C° 0.4 mm 4 m/S 745 mmHg 70%
14:00 +17°C° 0.4 mm 4 m/S 745 mmHg 74%
15:00 +15°C° 0.4 mm 5 m/S 746 mmHg 77%
16:00 +14°C° 0.4 mm 5 m/S 746 mmHg 81%
17:00 +13°C° 0 mm 5 m/S 746 mmHg 83%
18:00 +12°C° 0 mm 5 m/S 746 mmHg 86%
19:00 +9°C° 0 mm 5 m/S 746 mmHg 88%
20:00 +9°C° 0 mm 5 m/S 747 mmHg 89%
21:00 +8°C° 0 mm 4 m/S 747 mmHg 90%
22:00 +8°C° 0 mm 4 m/S 747 mmHg 92%
23:00 +8°C° 0 mm 4 m/S 747 mmHg 91%

Morgen, 19 Mai, Mittwoch

Zeit Temperatur Niederschläge Wind Luftdruck Luftfeuchtigkeit
00:00 +8°C° 0 mm 4 m/S 747 mmHg 90%
01:00 +8°C° 0 mm 4 m/S 747 mmHg 89%
02:00 +8°C° 0 mm 4 m/S 747 mmHg 89%
03:00 +8°C° 0 mm 4 m/S 747 mmHg 89%
04:00 +8°C° 0 mm 4 m/S 747 mmHg 89%
05:00 +8°C° 0 mm 4 m/S 747 mmHg 89%
06:00 +8°C° 0 mm 4 m/S 747 mmHg 89%
07:00 +10°C° 0 mm 4 m/S 748 mmHg 89%
08:00 +10°C° 0 mm 5 m/S 748 mmHg 85%
09:00 +12°C° 0 mm 5 m/S 748 mmHg 81%
10:00 +13°C° 0 mm 6 m/S 748 mmHg 77%
11:00 +13°C° 0.2 mm 6 m/S 748 mmHg 77%
12:00 +13°C° 0.2 mm 6 m/S 748 mmHg 77%
13:00 +13°C° 0.2 mm 6 m/S 748 mmHg 77%
14:00 +12°C° 0.1 mm 5 m/S 749 mmHg 78%
15:00 +12°C° 0.1 mm 5 m/S 749 mmHg 79%
16:00 +12°C° 0.1 mm 5 m/S 749 mmHg 80%
17:00 +10°C° 0 mm 5 m/S 749 mmHg 82%
18:00 +10°C° 0 mm 4 m/S 750 mmHg 84%
19:00 +9°C° 0 mm 3 m/S 750 mmHg 86%
20:00 +8°C° 0 mm 3 m/S 750 mmHg 88%
21:00 +7°C° 0 mm 3 m/S 750 mmHg 90%
22:00 +5°C° 0 mm 3 m/S 750 mmHg 92%
23:00 +5°C° 0 mm 3 m/S 750 mmHg 93%

übermorgen, 20 Mai, Donnerstag

Zeit Temperatur Niederschläge Wind Luftdruck Luftfeuchtigkeit
00:00 +5°C° 0 mm 3 m/S 751 mmHg 93%
01:00 +4°C° 0 mm 3 m/S 751 mmHg 94%
02:00 +4°C° 0 mm 3 m/S 751 mmHg 94%
03:00 +4°C° 0 mm 3 m/S 751 mmHg 94%
04:00 +4°C° 0 mm 3 m/S 751 mmHg 94%
05:00 +6°C° 0 mm 4 m/S 751 mmHg 88%
06:00 +8°C° 0 mm 4 m/S 751 mmHg 81%
07:00 +10°C° 0 mm 5 m/S 752 mmHg 75%
08:00 +12°C° 0 mm 5 m/S 752 mmHg 71%
09:00 +13°C° 0 mm 5 m/S 752 mmHg 67%
10:00 +14°C° 0 mm 5 m/S 752 mmHg 62%
11:00 +14°C° 0 mm 5 m/S 752 mmHg 61%
12:00 +15°C° 0 mm 5 m/S 752 mmHg 59%
13:00 +15°C° 0 mm 5 m/S 752 mmHg 58%
14:00 +15°C° 0 mm 5 m/S 752 mmHg 60%
15:00 +14°C° 0 mm 5 m/S 752 mmHg 62%
16:00 +14°C° 0 mm 5 m/S 753 mmHg 64%
17:00 +12°C° 0 mm 4 m/S 753 mmHg 70%
18:00 +11°C° 0 mm 4 m/S 753 mmHg 76%
19:00 +9°C° 0 mm 3 m/S 753 mmHg 82%
20:00 +8°C° 0 mm 3 m/S 753 mmHg 84%
21:00 +7°C° 0 mm 3 m/S 753 mmHg 87%
22:00 +5°C° 0 mm 2 m/S 754 mmHg 89%
23:00 +4°C° 0 mm 3 m/S 754 mmHg 89%

21 Mai, Freitag

Zeit Temperatur Niederschläge Wind Luftdruck Luftfeuchtigkeit
00:00 +3°C° 0 mm 3 m/S 754 mmHg 89%
01:00 +3°C° 0 mm 3 m/S 754 mmHg 89%
02:00 +3°C° 0 mm 3 m/S 754 mmHg 89%
03:00 +3°C° 0 mm 3 m/S 754 mmHg 89%
04:00 +3°C° 0 mm 3 m/S 754 mmHg 89%
05:00 +5°C° 0 mm 4 m/S 754 mmHg 85%
06:00 +7°C° 0 mm 4 m/S 754 mmHg 80%
07:00 +10°C° 0 mm 4 m/S 754 mmHg 76%
08:00 +10°C° 0 mm 5 m/S 754 mmHg 71%
09:00 +13°C° 0 mm 5 m/S 753 mmHg 67%
10:00 +14°C° 0 mm 5 m/S 753 mmHg 62%
11:00 +14°C° 0.2 mm 5 m/S 753 mmHg 62%
12:00 +15°C° 0.2 mm 5 m/S 752 mmHg 62%
13:00 +15°C° 0.2 mm 6 m/S 752 mmHg 61%
14:00 +15°C° 0.4 mm 5 m/S 752 mmHg 66%
15:00 +15°C° 0.4 mm 5 m/S 752 mmHg 70%
16:00 +15°C° 0.4 mm 5 m/S 751 mmHg 74%
17:00 +14°C° 0.1 mm 4 m/S 751 mmHg 76%
18:00 +13°C° 0.1 mm 4 m/S 751 mmHg 78%
19:00 +12°C° 0.1 mm 3 m/S 750 mmHg 80%
20:00 +12°C° 0 mm 4 m/S 750 mmHg 79%
21:00 +11°C° 0 mm 4 m/S 749 mmHg 78%
22:00 +10°C° 0 mm 5 m/S 749 mmHg 77%
23:00 +10°C° 0 mm 6 m/S 748 mmHg 74%

22 Mai, Samstag

Zeit Temperatur Niederschläge Wind Luftdruck Luftfeuchtigkeit
00:00 +11°C° 0 mm 6 m/S 748 mmHg 72%
01:00 +11°C° 0 mm 7 m/S 747 mmHg 69%
02:00 +11°C° 0 mm 7 m/S 747 mmHg 71%
03:00 +11°C° 0 mm 6 m/S 747 mmHg 74%
04:00 +12°C° 0 mm 5 m/S 747 mmHg 76%
05:00 +12°C° 0 mm 5 m/S 747 mmHg 76%
06:00 +12°C° 0 mm 5 m/S 747 mmHg 77%
07:00 +13°C° 0 mm 5 m/S 747 mmHg 77%
08:00 +14°C° 0 mm 5 m/S 747 mmHg 74%
09:00 +14°C° 0 mm 6 m/S 746 mmHg 72%
10:00 +15°C° 0 mm 6 m/S 746 mmHg 69%
11:00 +16°C° 0 mm 6 m/S 746 mmHg 68%
12:00 +17°C° 0 mm 6 m/S 746 mmHg 67%
13:00 +19°C° 0 mm 6 m/S 746 mmHg 67%
14:00 +17°C° 0.4 mm 5 m/S 745 mmHg 71%
15:00 +16°C° 0.4 mm 5 m/S 745 mmHg 76%
16:00 +15°C° 0.4 mm 5 m/S 745 mmHg 81%
17:00 +14°C° 0.9 mm 5 m/S 745 mmHg 86%
18:00 +13°C° 0.9 mm 4 m/S 744 mmHg 91%
19:00 +12°C° 0.9 mm 3 m/S 744 mmHg 96%
20:00 +11°C° 0.3 mm 3 m/S 745 mmHg 96%
21:00 +11°C° 0.3 mm 3 m/S 745 mmHg 95%
22:00 +11°C° 0.3 mm 3 m/S 745 mmHg 95%
23:00 +10°C° 0 mm 3 m/S 745 mmHg 95%

23 Mai, Sonntag

Zeit Temperatur Niederschläge Wind Luftdruck Luftfeuchtigkeit
00:00 +10°C° 0 mm 4 m/S 745 mmHg 95%
01:00 +8°C° 0 mm 4 m/S 745 mmHg 94%
02:00 +8°C° 0 mm 4 m/S 745 mmHg 94%
03:00 +7°C° 0 mm 4 m/S 746 mmHg 95%
04:00 +7°C° 0 mm 3 m/S 746 mmHg 95%
05:00 +7°C° 0 mm 4 m/S 746 mmHg 91%
06:00 +9°C° 0 mm 5 m/S 747 mmHg 88%
07:00 +10°C° 0 mm 5 m/S 747 mmHg 84%
08:00 +11°C° 0.1 mm 6 m/S 747 mmHg 79%
09:00 +13°C° 0.1 mm 6 m/S 748 mmHg 74%
10:00 +14°C° 0.1 mm 7 m/S 748 mmHg 68%
11:00 +14°C° 0.2 mm 6 m/S 748 mmHg 66%
12:00 +14°C° 0.2 mm 6 m/S 748 mmHg 64%
13:00 +15°C° 0.2 mm 6 m/S 748 mmHg 62%
14:00 +14°C° 0.2 mm 6 m/S 749 mmHg 64%
15:00 +14°C° 0.2 mm 5 m/S 749 mmHg 67%
16:00 +14°C° 0.2 mm 5 m/S 749 mmHg 69%
17:00 +13°C° 0.2 mm 4 m/S 749 mmHg 74%
18:00 +12°C° 0.2 mm 3 m/S 750 mmHg 78%
19:00 +10°C° 0.2 mm 3 m/S 750 mmHg 83%
20:00 +9°C° 0 mm 3 m/S 750 mmHg 85%
21:00 +8°C° 0 mm 3 m/S 751 mmHg 87%
22:00 +7°C° 0 mm 3 m/S 751 mmHg 90%
23:00 +5°C° 0 mm 3 m/S 751 mmHg 90%
Mehr zeigen

Wir brauchen deine Erlaubnis

Meteoprog und unser Service Anbieter werden persönliche Daten aufbewahren, so wie Cookies, Geräte Bezeichnung oder ähnliche Technologien von deinem Gerät und Prozess, so wie Persönliche Daten Inhalte und Werbungen, genauso wie social Media und den Verkehr zu analysieren.

  • Aufbewahrung und/oder Zugang zu deiner Geräte Informationen.

    Cookies, Geräte Bezeichnung oder andere Informationen, können aufbewahrt oder Zugang zu deinem Gerät erhalten, für den Grund, der oben angegeben wird.

  • Personalisierte Werbung und Inhalte, Messungen, Einblick in das Publikum und Produkt Entwicklung.

    Werbungen und Inhalte können personalisiert werden, basierend auf ein Profil. Mehr Daten können besser personalisierte Werbungen und Inhalte hinzufügen. Werbung und Inhalte können gezeigt und gemessen werden. Einblicke über das Publikum, welche die Werbung gesehen haben und den Inhalt, können abgeleitet werden. So wie Daten können genutzt werden, um es zu verbessern oder die Benutzer Erfahrung zu verbessern das System und die Software.

Wenn du “Ich stimme zu” klickst, erlaubst du uns, die Cookies zu benutzen die Geräte Bezeichnung, den Web oder ähnliche Technologien zu benutzen. Deine Settings, können in deinem Gerät bei deinem Browser geändert werden.

Für den bestimmten Zweck, berechtigten Interessen beruhen darauf, mehr als auf den Inhalt. Du kannst mehr darüber in unseren Privaten und Cookie Politik lesen.